Terminal Aerodrome Forecast
Issued by NWS Atlanta, GA

Home | Current Version | Previous Version | Text Only | Print | Product List | Glossary On
Versions: 1 2 3 4 5 6 7 8 9 10 11 12 13 14 15 16 17 18 19 20 21 22 23 24 25 26
376
FTUS42 KFFC 270520
TAFCSG
TAF
KCSG 270520Z 2706/2806 09003KT P6SM SCT250
     FM270800 09003KT P6SM BKN015
     FM271400 10004KT P6SM SCT035
     FM271700 VRB04KT P6SM SCT050 SCT250 PROB30 2719/2723 P6SM TSRA
      BKN040CB
     FM280100 21004KT P6SM FEW080=

USA.gov is the U.S. government's official web portal to all federal, state and local government web resources and services.